Overview Statistics Trail Chart Weather Telemetry Raw packets
 

This is the latest recevied weather packets stored in our database for station/object DL7KAW-10. If no packets are shown the sender has not sent any weather packets the latest 10 day(s).

<< 18 19 20 21 22 23 24 >>
Time Temp. Humidity Pressure Rain* Wind** Luminosity Snow
1788280309 21.67° C 67% 1017.2 hPa - - - -
1788279409 21.67° C 68% 1017.2 hPa - - - -
1788278508 21.67° C 66% 1016.4 hPa - - - -
1788277608 21.67° C 66% 1016.3 hPa - - - -
1788276708 21.67° C 66% 1016.5 hPa - - - -
1788275808 21.67° C 67% 1016.3 hPa - - - -
1788274908 21.67° C 67% 1016.4 hPa - - - -
1788274008 21.67° C 67% 1016.4 hPa - - - -
1788273108 21.67° C 65% 1016.5 hPa - - - -
1788272208 21.67° C 66% 1016.3 hPa - - - -
1788271308 21.67° C 66% 1016.2 hPa - - - -
1788270407 21.67° C 65% 1016.2 hPa - - - -
1788269507 21.67° C 65% 1016.1 hPa - - - -
1788268607 21.67° C 65% 1016.2 hPa - - - -
1788267707 21.67° C 66% 1016.2 hPa - - - -
1788266807 21.67° C 66% 1016.3 hPa - - - -
1788265907 21.67° C 69% 1016.2 hPa - - - -
1788265007 21.67° C 66% 1016.3 hPa - - - -
1788264107 21.67° C 67% 1016.1 hPa - - - -
1788263206 21.67° C 66% 1016.2 hPa - - - -
1788262306 21.67° C 65% 1016.3 hPa - - - -
1788261406 21.67° C 66% 1016.5 hPa - - - -
1788260506 21.67° C 65% 1016.5 hPa - - - -
1788259606 21.67° C 66% 1016.4 hPa - - - -
1788258706 21.67° C 65% 1016.1 hPa - - - -

* Rain since midnight (hover to see other rain measurements)
** Current wind speed in m/s (hover to see current wind gust speed)